Location: Kimberly
(42.5380°N, 114.3640°W)
Time: 18:48:33
(UTC-07:00)

OTV 5 (USA 277) - Visible Passes

Search period start: 21 January 2019 00:00
Search period end: 31 January 2019 00:00
Orbit: 339 x 349 km, 54.5° (Epoch: 15 January)

Date Brightness Start Highest point End Pass type
(mag) Time Alt. Az. Time Alt. Az. Time Alt. Az.
24 Jan ? 06:43:00 10° SSE 06:44:42 15° SE 06:46:24 10° E visible
25 Jan ? 07:05:19 10° SSW 07:08:06 47° SE 07:10:56 10° ENE visible
26 Jan ? 05:55:33 10° SSE 05:57:09 14° SE 05:58:45 10° E visible
27 Jan ? 06:19:16 25° SSW 06:20:33 45° SE 06:23:22 10° ENE visible
28 Jan ? 06:42:57 28° W 06:44:11 50° NW 06:47:02 10° NE visible
29 Jan ? 05:34:55 17° ENE 05:34:55 17° ENE 05:35:46 10° ENE visible
29 Jan ? 07:06:22 14° WNW 07:08:02 21° NNW 07:10:21 10° NNE visible
30 Jan ? 05:58:08 23° NNE 05:58:08 23° NNE 05:59:29 10° NE visible
